This demonstration page uses our WeatherBlox Daily Observations layout. Learn more.

Hourly Observations for July 1, 2020

Temp ( °F °C ) Dew Point ( °F °C ) Humidity (%) Winds ( mph kmh ) Pressure ( in mb ) Visibility ( mi km ) Precip ( " mm )
12:15 am 00:15 Partly Cloudy 73 23 68 20 83 83 NNE 3 6 29.89 1012 10 16.0934 0 0
12:35 am 00:35 Partly Cloudy 73 23 68 20 83 83 NE 5 7 29.89 1012 10 16.0934 0 0
12:55 am 00:55 Partly Cloudy 73 23 68 20 83 83 NNE 3 6 29.89 1012 10 16.0934 0 0
1:15 am 01:15 Mostly Cloudy 73 23 66 19 78 78 NE 5 7 29.89 1012 10 16.0934 0 0
1:35 am 01:35 Cloudy 73 23 68 20 83 83 N 10 17 29.91 1013 10 16.0934 0 0
1:55 am 01:55 Cloudy 73 23 68 20 83 83 NNE 9 15 29.9 1012 10 16.0934 0 0
2:15 am 02:15 Cloudy 72 22 68 20 88 88 NE 8 13 29.89 1012 10 16.0934 0 0
2:35 am 02:35 Cloudy 70 21 68 20 94 94 NE 8 13 29.9 1013 7 11.26538 0 0
3:15 am 03:15 Cloudy 70 21 68 20 94 94 Calm 29.89 1012 10 16.0934 0 0
3:35 am 03:35 Cloudy 70 21 68 20 94 94 Calm 29.89 1012 10 16.0934 0 0
3:55 am 03:55 Cloudy 70 21 68 20 94 94 ENE 6 9 29.89 1012 10 16.0934 0 0
4:15 am 04:15 Mostly Cloudy 68 20 68 20 100 100 NNE 3 6 29.88 1012 10 16.0934 0 0
4:35 am 04:35 Partly Cloudy with Nearby Thunderstorms 68 20 68 20 100 100 Calm 29.88 1012 10 16.0934 0 0
4:55 am 04:55 Mostly Cloudy 68 20 68 20 100 100 N 3 6 29.88 1012 10 16.0934 0 0
5:15 am 05:15 Mostly Cloudy 66 19 66 19 100 100 N 5 7 29.87 1012 10 16.0934 0 0
5:35 am 05:35 Clear 66 19 64 18 94 94 NNE 3 6 29.88 1012 10 16.0934 0 0
5:55 am 05:55 Sunny 66 19 64 18 94 94 NE 3 6 29.89 1012 10 16.0934 0 0
6:15 am 06:15 Partly Cloudy 66 19 64 18 94 94 NNE 3 6 29.9 1013 10 16.0934 0 0
6:35 am 06:35 Partly Cloudy 66 19 64 18 94 94 N 3 6 29.9 1013 10 16.0934 0 0
6:55 am 06:55 Sunny 68 20 64 18 88 88 NNE 3 6 29.9 1013 10 16.0934 0 0
7:15 am 07:15 Partly Cloudy 68 20 64 18 88 88 NNE 3 6 29.91 1013 10 16.0934 0 0
7:35 am 07:35 Partly Cloudy 68 20 66 19 94 94 N 5 7 29.91 1013 10 16.0934 0 0
7:55 am 07:55 Sunny 70 21 66 19 88 88 N 5 7 29.91 1013 10 16.0934 0 0
8:15 am 08:15 Sunny 72 22 68 20 88 88 N 6 9 29.91 1013 10 16.0934 0 0
8:35 am 08:35 Sunny 72 22 68 20 88 88 NNE 5 7 29.91 1013 10 16.0934 0 0
8:55 am 08:55 Sunny 73 23 68 20 83 83 N 3 6 29.91 1013 10 16.0934 0 0
9:15 am 09:15 Sunny 73 23 68 20 83 83 NNE 7 11 29.93 1013 10 16.0934 0 0
9:35 am 09:35 Sunny 73 23 68 20 83 83 NE 3 6 29.93 1013 10 16.0934 0 0
9:55 am 09:55 Sunny 73 23 68 20 83 83 N 7 11 29.92 1013 10 16.0934 0 0
10:15 am 10:15 Sunny 75 24 68 20 78 78 N 6 9 29.92 1013 10 16.0934 0 0
10:35 am 10:35 Sunny 77 25 66 19 69 69 NNE 7 11 29.91 1013 10 16.0934 0 0
10:55 am 10:55 Sunny 77 25 68 20 74 74 NNE 8 13 29.91 1013 10 16.0934 0 0
11:15 am 11:15 Sunny 79 26 68 20 70 70 NNE 6 9 29.9 1013 10 16.0934 0 0
11:35 am 11:35 Partly Cloudy 79 26 68 20 70 70 N 6 9 29.9 1013 10 16.0934 0 0
11:55 am 11:55 Mostly Cloudy 79 26 68 20 70 70 NNE 3 6 29.9 1013 10 16.0934 0 0
12:15 pm 12:15 Mostly Cloudy 81 27 68 20 66 66 N 5 7 29.9 1013 10 16.0934 0 0
12:35 pm 12:35 Mostly Cloudy 79 26 68 20 70 70 Calm 29.9 1013 10 16.0934 0 0
12:55 pm 12:55 Mostly Cloudy 81 27 68 20 66 66 NNE 6 9 29.89 1012 10 16.0934 0 0
1:15 pm 13:15 Mostly Cloudy 81 27 68 20 66 66 NNE 7 11 29.88 1012 10 16.0934 0 0
1:35 pm 13:35 Mostly Cloudy 82 28 68 20 62 62 N 8 13 29.87 1012 10 16.0934 0 0
1:55 pm 13:55 Partly Cloudy 82 28 68 20 62 62 NNE 6 9 29.86 1011 10 16.0934 0 0
2:15 pm 14:15 Partly Cloudy 82 28 68 20 62 62 NNW 9 15 29.86 1011 10 16.0934 0 0
2:35 pm 14:35 Partly Cloudy 84 29 68 20 58 58 N 8 13 29.86 1011 10 16.0934 0 0
2:55 pm 14:55 Partly Cloudy 82 28 64 18 55 55 N 5 7 29.85 1011 10 16.0934 0 0
3:15 pm 15:15 Partly Cloudy 84 29 66 19 55 55 NW 5 7 29.84 1010 10 16.0934 0 0
3:35 pm 15:35 Mostly Cloudy 86 30 64 18 49 49 N 10 17 29.84 1010 10 16.0934 0 0
3:55 pm 15:55 Partly Cloudy 84 29 64 18 51 51 NNW 7 11 29.84 1010 10 16.0934 0 0
4:15 pm 16:15 Partly Cloudy 86 30 64 18 49 49 N 12 19 29.84 1010 10 16.0934 0 0
4:35 pm 16:35 Partly Cloudy 84 29 64 18 51 51 N 8 13 29.84 1010 10 16.0934 0 0
4:55 pm 16:55 Sunny 84 29 64 18 51 51 NE 9 15 29.83 1010 10 16.0934 0 0
5:15 pm 17:15 Partly Cloudy 84 29 64 18 51 51 NNE 10 17 29.83 1010 10 16.0934 0 0
5:35 pm 17:35 Partly Cloudy 86 30 63 17 46 46 N 9 15 29.83 1010 10 16.0934 0 0
5:55 pm 17:55 Sunny 84 29 63 17 48 48 NNE 8 13 29.83 1010 10 16.0934 0 0
6:15 pm 18:15 Sunny 84 29 63 17 48 48 NNE 6 9 29.83 1010 10 16.0934 0 0
6:35 pm 18:35 Sunny 84 29 63 17 48 48 N 7 11 29.83 1010 10 16.0934 0 0
6:55 pm 18:55 Sunny 82 28 63 17 51 51 N 6 9 29.83 1010 10 16.0934 0 0
7:15 pm 19:15 Partly Cloudy 82 28 61 16 48 48 N 5 7 29.83 1010 10 16.0934 0 0
7:35 pm 19:35 Cloudy 82 28 63 17 51 51 NE 5 7 29.84 1011 10 16.0934 0 0
7:55 pm 19:55 Cloudy 82 28 64 18 55 55 NE 6 9 29.85 1011 10 16.0934 0 0
8:15 pm 20:15 Partly Cloudy 81 27 64 18 58 58 NE 5 7 29.86 1011 10 16.0934 0 0
8:35 pm 20:35 Mostly Cloudy 81 27 64 18 58 58 NE 5 7 29.86 1011 10 16.0934 0 0
8:55 pm 20:55 Mostly Cloudy 81 27 64 18 58 58 NE 5 7 29.86 1011 10 16.0934 0 0
9:15 pm 21:15 Partly Cloudy 79 26 64 18 61 61 NE 3 6 29.87 1012 10 16.0934 0 0
9:35 pm 21:35 Mostly Cloudy 79 26 64 18 61 61 NE 3 6 29.88 1012 10 16.0934 0 0
9:55 pm 21:55 Cloudy 79 26 64 18 61 61 NE 3 6 29.88 1012 10 16.0934 0 0
10:15 pm 22:15 Partly Cloudy 79 26 64 18 61 61 Calm 29.89 1012 10 16.0934 0 0
10:35 pm 22:35 Clear 77 25 66 19 69 69 Calm 29.89 1012 10 16.0934 0 0
10:55 pm 22:55 Clear 75 24 66 19 74 74 Calm 29.9 1012 10 16.0934 0 0
11:15 pm 23:15 Clear 73 23 66 19 78 78 N 3 6 29.9 1012 10 16.0934 0 0
11:35 pm 23:35 Clear 72 22 66 19 83 83 SSW 5 7 29.91 1013 10 16.0934 0 0
11:55 pm 23:55 Clear 72 22 66 19 83 83 WSW 3 6 29.91 1013 10 16.0934 0 0

Powered by AerisWeather